| time (UTC) | temp F | wind direction | speed MPH | gust MPH | rain 1hr in | rain 24hr in | rain mn in | humidity % | barometer mb |
| 20260510220048 | 82 | 204 | 0.0 | 4.0 | 0.00 | 0.00 | 0.00 | 29 | 1013.0 |
| 20260510215550 | 82 | 203 | 0.0 | 6.0 | 0.00 | 0.00 | 0.00 | 29 | 1012.9 |
| 20260510215052 | 82 | 169 | 1.0 | 6.0 | 0.00 | 0.00 | 0.00 | 30 | 1012.9 |
| 20260510214547 | 82 | 227 | 1.0 | 4.0 | 0.00 | 0.00 | 0.00 | 29 | 1013.0 |
| 20260510214047 | 82 | 220 | 0.0 | 6.0 | 0.00 | 0.00 | 0.00 | 30 | 1013.0 |
| 20260510213548 | 82 | 220 | 2.0 | 6.0 | 0.00 | 0.00 | 0.00 | 29 | 1013.0 |
| 20260510213046 | 83 | 205 | 1.0 | 5.0 | 0.00 | 0.00 | 0.00 | 29 | 1012.9 |
| 20260510212546 | 83 | 223 | 1.0 | 5.0 | 0.00 | 0.00 | 0.00 | 30 | 1012.9 |
| 20260510212046 | 83 | 103 | 0.0 | 6.0 | 0.00 | 0.00 | 0.00 | 29 | 1012.9 |
| 20260510211546 | 83 | 211 | 0.0 | 8.0 | 0.00 | 0.00 | 0.00 | 29 | 1012.9 |
| 20260510211046 | 83 | 226 | 5.0 | 11.0 | 0.00 | 0.00 | 0.00 | 28 | 1012.9 |
| 20260510210544 | 83 | 229 | 4.0 | 11.0 | 0.00 | 0.00 | 0.00 | 27 | 1012.8 |
| 20260510210047 | 84 | 246 | 3.0 | 6.0 | 0.00 | 0.00 | 0.00 | 27 | 1012.7 |
| 20260510205544 | 84 | 233 | 3.0 | 6.0 | 0.00 | 0.00 | 0.00 | 28 | 1012.7 |
| 20260510205144 | 84 | 160 | 1.0 | 4.0 | 0.00 | 0.00 | 0.00 | 28 | 1012.7 |
| 20260510204544 | 85 | 198 | 1.0 | 7.0 | 0.00 | 0.00 | 0.00 | 26 | 1012.7 |
| 20260510204044 | 85 | 221 | 3.0 | 8.0 | 0.00 | 0.00 | 0.00 | 25 | 1012.6 |
| 20260510203546 | 86 | 231 | 4.0 | 7.0 | 0.00 | 0.00 | 0.00 | 26 | 1012.7 |
| 20260510203043 | 86 | 183 | 1.0 | 7.0 | 0.00 | 0.00 | 0.00 | 26 | 1012.6 |
| 20260510202543 | 86 | 217 | 2.0 | 9.0 | 0.00 | 0.00 | 0.00 | 27 | 1012.7 |
| 20260510202042 | 87 | 219 | 4.0 | 6.0 | 0.00 | 0.00 | 0.00 | 25 | 1012.9 |
| 20260510201544 | 87 | 208 | 2.0 | 7.0 | 0.00 | 0.00 | 0.00 | 26 | 1012.8 |
| 20260510201042 | 87 | 211 | 3.0 | 8.0 | 0.00 | 0.00 | 0.00 | 25 | 1012.8 |
| 20260510200542 | 87 | 207 | 2.0 | 8.0 | 0.00 | 0.00 | 0.00 | 25 | 1012.9 |
| 20260510200042 | 87 | 194 | 1.0 | 5.0 | 0.00 | 0.00 | 0.00 | 27 | 1012.8 |
| 20260510195540 | 87 | 227 | 1.0 | 6.0 | 0.00 | 0.00 | 0.00 | 26 | 1013.0 |
| 20260510195043 | 87 | 136 | 1.0 | 3.0 | 0.00 | 0.00 | 0.00 | 28 | 1013.0 |
| 20260510194542 | 87 | 182 | 1.0 | 8.0 | 0.00 | 0.00 | 0.00 | 26 | 1012.9 |
| 20260510194040 | 87 | 215 | 3.0 | 8.0 | 0.00 | 0.00 | 0.00 | 27 | 1013.0 |
| 20260510193540 | 87 | 173 | 0.0 | 4.0 | 0.00 | 0.00 | 0.00 | 27 | 1013.1 |
| 20260510193041 | 87 | 116 | 1.0 | 9.0 | 0.00 | 0.00 | 0.00 | 27 | 1013.2 |
| 20260510192539 | 87 | 204 | 3.0 | 8.0 | 0.00 | 0.00 | 0.00 | 23 | 1013.3 |
| 20260510192039 | 87 | 197 | 4.0 | 9.0 | 0.00 | 0.00 | 0.00 | 24 | 1013.4 |
| 20260510191539 | 88 | 216 | 5.0 | 9.0 | 0.00 | 0.00 | 0.00 | 25 | 1013.4 |
| 20260510191038 | 88 | 191 | 1.0 | 7.0 | 0.00 | 0.00 | 0.00 | 25 | 1013.4 |
| 20260510190539 | 88 | 211 | 3.0 | 7.0 | 0.00 | 0.00 | 0.00 | 24 | 1013.4 |
| 20260510190042 | 88 | 287 | 0.0 | 5.0 | 0.00 | 0.00 | 0.00 | 26 | 1013.4 |
| 20260510185536 | 88 | 239 | 1.0 | 7.0 | 0.00 | 0.00 | 0.00 | 28 | 1013.4 |
| 20260510185036 | 88 | 192 | 2.0 | 7.0 | 0.00 | 0.00 | 0.00 | 26 | 1013.5 |
| 20260510184534 | 87 | 189 | 0.0 | 5.0 | 0.00 | 0.00 | 0.00 | 24 | 1013.7 |
| 20260510184037 | 87 | 190 | 1.0 | 4.0 | 0.00 | 0.00 | 0.00 | 28 | 1013.8 |
| 20260510183535 | 87 | 194 | 1.0 | 5.0 | 0.00 | 0.00 | 0.00 | 24 | 1013.8 |
| 20260510183038 | 87 | 171 | 1.0 | 8.0 | 0.00 | 0.00 | 0.00 | 26 | 1013.7 |
| 20260510182535 | 87 | 196 | 2.0 | 8.0 | 0.00 | 0.00 | 0.00 | 29 | 1013.8 |
| 20260510182032 | 87 | 198 | 2.0 | 5.0 | 0.00 | 0.00 | 0.00 | 28 | 1013.9 |
| 20260510181532 | 87 | 141 | 1.0 | 5.0 | 0.00 | 0.00 | 0.00 | 25 | 1013.7 |
| 20260510181032 | 87 | 144 | 2.0 | 5.0 | 0.00 | 0.00 | 0.00 | 26 | 1013.7 |
| 20260510180530 | 87 | 195 | 2.0 | 5.0 | 0.00 | 0.00 | 0.00 | 30 | 1013.9 |
| 20260510180030 | 86 | 198 | 0.0 | 6.0 | 0.00 | 0.00 | 0.00 | 31 | 1013.8 |
| 20260510175529 | 86 | 186 | 2.0 | 6.0 | 0.00 | 0.00 | 0.00 | 29 | 1013.9 |
| 20260510175029 | 86 | 213 | 2.0 | 6.0 | 0.00 | 0.00 | 0.00 | 28 | 1013.8 |
| 20260510174529 | 86 | 225 | 1.0 | 4.0 | 0.00 | 0.00 | 0.00 | 30 | 1013.9 |
| 20260510174032 | 86 | 110 | 1.0 | 6.0 | 0.00 | 0.00 | 0.00 | 29 | 1013.9 |
| 20260510173531 | 86 | 198 | 3.0 | 6.0 | 0.00 | 0.00 | 0.00 | 28 | 1014.0 |
| 20260510173026 | 86 | 176 | 2.0 | 6.0 | 0.00 | 0.00 | 0.00 | 30 | 1014.0 |
| 20260510172525 | 85 | 96 | 0.0 | 3.0 | 0.00 | 0.00 | 0.00 | 33 | 1014.1 |
| 20260510172024 | 84 | 96 | 1.0 | 4.0 | 0.00 | 0.00 | 0.00 | 33 | 1014.0 |
| 20260510171527 | 85 | 126 | 1.0 | 6.0 | 0.00 | 0.00 | 0.00 | 27 | 1014.1 |
| 20260510171021 | 84 | 181 | 2.0 | 7.0 | 0.00 | 0.00 | 0.00 | 31 | 1014.1 |
| 20260510170520 | 84 | 193 | 2.0 | 6.0 | 0.00 | 0.00 | 0.00 | 31 | 1014.1 |
| 20260510170020 | 84 | 194 | 3.0 | 7.0 | 0.00 | 0.00 | 0.00 | 33 | 1014.1 |
| 20260510165520 | 84 | 206 | 3.0 | 7.0 | 0.00 | 0.00 | 0.00 | 33 | 1014.1 |
| 20260510165017 | 83 | 192 | 2.0 | 7.0 | 0.00 | 0.00 | 0.00 | 35 | 1014.2 |
| 20260510164516 | 83 | 207 | 3.0 | 7.0 | 0.00 | 0.00 | 0.00 | 33 | 1014.2 |
| 20260510164019 | 83 | 190 | 4.0 | 7.0 | 0.00 | 0.00 | 0.00 | 34 | 1014.3 |
| 20260510163517 | 83 | 192 | 3.0 | 7.0 | 0.00 | 0.00 | 0.00 | 34 | 1014.2 |
| 20260510163015 | 83 | 247 | 1.0 | 5.0 | 0.00 | 0.00 | 0.00 | 35 | 1014.2 |
| 20260510162518 | 82 | 201 | 2.0 | 5.0 | 0.00 | 0.00 | 0.00 | 35 | 1014.2 |
| 20260510162013 | 82 | 178 | 0.0 | 5.0 | 0.00 | 0.00 | 0.00 | 37 | 1014.3 |
| 20260510161613 | 82 | 182 | 2.0 | 5.0 | 0.00 | 0.00 | 0.00 | 37 | 1014.4 |
| 20260510161013 | 82 | 82 | 1.0 | 7.0 | 0.00 | 0.00 | 0.00 | 37 | 1014.5 |
| 20260510160513 | 83 | 89 | 1.0 | 7.0 | 0.00 | 0.00 | 0.00 | 36 | 1014.6 |
| 20260510160013 | 83 | 196 | 0.0 | 5.0 | 0.00 | 0.00 | 0.00 | 38 | 1014.6 |
| 20260510155516 | 83 | 197 | 0.0 | 5.0 | 0.00 | 0.00 | 0.00 | 39 | 1014.6 |
| 20260510155012 | 83 | 209 | 3.0 | 7.0 | 0.00 | 0.00 | 0.00 | 36 | 1014.7 |
| 20260510154512 | 83 | 179 | 2.0 | 7.0 | 0.00 | 0.00 | 0.00 | 38 | 1014.8 |
| 20260510154013 | 83 | 219 | 1.0 | 4.0 | 0.00 | 0.00 | 0.00 | 41 | 1014.8 |
| 20260510153512 | 82 | 126 | 1.0 | 3.0 | 0.00 | 0.00 | 0.00 | 38 | 1014.9 |
| 20260510153009 | 82 | 182 | 0.0 | 4.0 | 0.00 | 0.00 | 0.00 | 40 | 1014.9 |
| 20260510152512 | 81 | 182 | 1.0 | 4.0 | 0.00 | 0.00 | 0.00 | 38 | 1014.9 |
| 20260510152007 | 81 | 155 | 0.0 | 7.0 | 0.00 | 0.00 | 0.00 | 40 | 1014.9 |
| 20260510151507 | 81 | 202 | 1.0 | 7.0 | 0.00 | 0.00 | 0.00 | 39 | 1014.8 |
| 20260510151006 | 81 | 202 | 1.0 | 4.0 | 0.00 | 0.00 | 0.00 | 38 | 1014.8 |
| 20260510150505 | 81 | 197 | 1.0 | 4.0 | 0.00 | 0.00 | 0.00 | 42 | 1014.7 |
| 20260510150004 | 80 | 205 | 1.0 | 4.0 | 0.00 | 0.00 | 0.00 | 42 | 1014.8 |
| 20260510145503 | 80 | 108 | 1.0 | 4.0 | 0.00 | 0.00 | 0.00 | 41 | 1014.6 |
| 20260510145003 | 80 | 198 | 3.0 | 4.0 | 0.00 | 0.00 | 0.00 | 40 | 1014.5 |
| 20260510144502 | 80 | 142 | 0.0 | 2.0 | 0.00 | 0.00 | 0.00 | 45 | 1014.6 |
| 20260510144002 | 79 | 190 | 0.0 | 0.0 | 0.00 | 0.00 | 0.00 | 48 | 1014.5 |
| 20260510143600 | 79 | 207 | 0.0 | 0.0 | 0.00 | 0.00 | 0.00 | 48 | 1014.5 |
| 20260510143115 | 79 | 207 | 0.0 | 2.0 | 0.00 | 0.00 | 0.00 | 47 | 1014.4 |
| 20260510142600 | 78 | 207 | 0.0 | 4.0 | 0.00 | 0.00 | 0.00 | 47 | 1014.5 |
| 20260510142057 | 78 | 205 | 1.0 | 4.0 | 0.00 | 0.00 | 0.00 | 47 | 1014.6 |
| 20260510141603 | 77 | 311 | 0.0 | 0.0 | 0.00 | 0.00 | 0.00 | 53 | 1014.6 |
| 20260510141054 | 77 | 311 | 0.0 | 0.0 | 0.00 | 0.00 | 0.00 | 51 | 1014.5 |
| 20260510140554 | 77 | 309 | 0.0 | 0.0 | 0.00 | 0.00 | 0.00 | 53 | 1014.6 |
| 20260510140052 | 76 | 300 | 0.0 | 2.0 | 0.00 | 0.00 | 0.00 | 54 | 1014.6 |
| 20260510135550 | 76 | 300 | 0.0 | 2.0 | 0.00 | 0.00 | 0.00 | 57 | 1014.7 |
| 20260510135049 | 75 | 300 | 0.0 | 2.0 | 0.00 | 0.00 | 0.00 | 65 | 1014.8 |
| 20260510134603 | 74 | 303 | 0.0 | 0.0 | 0.00 | 0.00 | 0.00 | 67 | 1014.7 |
| 20260510134045 | 74 | 303 | 0.0 | 1.0 | 0.00 | 0.00 | 0.00 | 68 | 1014.7 |
| 20260510133544 | 73 | 302 | 0.0 | 1.0 | 0.00 | 0.00 | 0.00 | 68 | 1014.6 |
| 20260510133043 | 72 | 285 | 0.0 | 0.0 | 0.00 | 0.00 | 0.00 | 70 | 1014.6 |
| 20260510132542 | 72 | 285 | 0.0 | 0.0 | 0.00 | 0.00 | 0.00 | 74 | 1014.5 |
| 20260510132040 | 71 | 285 | 0.0 | 1.0 | 0.00 | 0.00 | 0.00 | 75 | 1014.5 |
| 20260510131539 | 70 | 285 | 0.0 | 2.0 | 0.00 | 0.00 | 0.00 | 79 | 1014.5 |
| 20260510131039 | 69 | 285 | 0.0 | 1.0 | 0.00 | 0.00 | 0.00 | 81 | 1014.5 |
| 20260510130536 | 68 | 198 | 0.0 | 1.0 | 0.00 | 0.00 | 0.00 | 83 | 1014.6 |
| 20260510130034 | 67 | 198 | 0.0 | 1.0 | 0.00 | 0.00 | 0.00 | 86 | 1014.6 |
| 20260510125532 | 67 | 198 | 0.0 | 1.0 | 0.00 | 0.00 | 0.00 | 91 | 1014.6 |
| 20260510125031 | 66 | 198 | 0.0 | 3.0 | 0.00 | 0.00 | 0.00 | 94 | 1014.5 |
| 20260510124532 | 65 | 198 | 0.0 | 1.0 | 0.00 | 0.00 | 0.00 | 95 | 1014.4 |
| 20260510124030 | 64 | 198 | 0.0 | 0.0 | 0.00 | 0.00 | 0.00 | 95 | 1014.4 |
| 20260510123530 | 63 | 198 | 0.0 | 0.0 | 0.00 | 0.00 | 0.00 | 95 | 1014.3 |
| 20260510123026 | 63 | 198 | 0.0 | 0.0 | 0.00 | 0.00 | 0.00 | 95 | 1014.3 |
| 20260510122525 | 62 | 198 | 0.0 | 0.0 | 0.00 | 0.00 | 0.00 | 95 | 1014.4 |
| 20260510122024 | 61 | 198 | 0.0 | 0.0 | 0.00 | 0.00 | 0.00 | 95 | 1014.3 |
| 20260510121527 | 60 | 198 | 0.0 | 0.0 | 0.00 | 0.00 | 0.00 | 95 | 1014.1 |
| 20260510121022 | 58 | 198 | 0.0 | 0.0 | 0.00 | 0.00 | 0.00 | 94 | 1014.1 |
| 20260510120522 | 57 | 198 | 0.0 | 0.0 | 0.00 | 0.00 | 0.00 | 93 | 1014.0 |
| 20260510120033 | 56 | 198 | 0.0 | 0.0 | 0.00 | 0.00 | 0.00 | 91 | 1013.9 |
| 20260510115519 | 56 | 198 | 0.0 | 0.0 | 0.00 | 0.00 | 0.00 | 90 | 1013.8 |
| 20260510115019 | 55 | 198 | 0.0 | 0.0 | 0.00 | 0.00 | 0.00 | 89 | 1013.8 |
| 20260510114519 | 55 | 198 | 0.0 | 0.0 | 0.00 | 0.00 | 0.00 | 87 | 1013.9 |
| 20260510114019 | 55 | 198 | 0.0 | 0.0 | 0.00 | 0.00 | 0.00 | 86 | 1013.8 |
| 20260510113517 | 55 | 198 | 0.0 | 0.0 | 0.00 | 0.00 | 0.00 | 86 | 1013.9 |
| 20260510113017 | 54 | 198 | 0.0 | 0.0 | 0.00 | 0.00 | 0.00 | 86 | 1013.7 |
| 20260510112516 | 54 | 198 | 0.0 | 0.0 | 0.00 | 0.00 | 0.00 | 85 | 1013.7 |
| 20260510112016 | 54 | 198 | 0.0 | 0.0 | 0.00 | 0.00 | 0.00 | 85 | 1013.4 |
| 20260510111515 | 54 | 198 | 0.0 | 2.0 | 0.00 | 0.00 | 0.00 | 85 | 1013.4 |
| 20260510111014 | 54 | 198 | 0.0 | 2.0 | 0.00 | 0.00 | 0.00 | 84 | 1013.4 |
| 20260510110512 | 54 | 198 | 1.0 | 2.0 | 0.00 | 0.00 | 0.00 | 83 | 1013.2 |
| 20260510110014 | 54 | 198 | 0.0 | 0.0 | 0.00 | 0.00 | 0.00 | 83 | 1012.9 |
| 20260510105511 | 54 | 198 | 0.0 | 0.0 | 0.00 | 0.00 | 0.00 | 82 | 1012.9 |
| 20260510105011 | 54 | 198 | 0.0 | 0.0 | 0.00 | 0.00 | 0.00 | 82 | 1012.9 |
| 20260510104513 | 54 | 198 | 0.0 | 0.0 | 0.00 | 0.00 | 0.00 | 82 | 1012.9 |
| 20260510104011 | 54 | 198 | 0.0 | 0.0 | 0.00 | 0.00 | 0.00 | 82 | 1012.8 |
| 20260510103509 | 54 | 198 | 0.0 | 0.0 | 0.00 | 0.00 | 0.00 | 82 | 1012.7 |
| 20260510103010 | 54 | 198 | 0.0 | 0.0 | 0.00 | 0.00 | 0.00 | 82 | 1012.7 |
| 20260510102508 | 54 | 198 | 0.0 | 0.0 | 0.00 | 0.00 | 0.00 | 82 | 1012.7 |
| 20260510102007 | 54 | 198 | 0.0 | 0.0 | 0.00 | 0.00 | 0.00 | 82 | 1012.7 |
| 20260510101506 | 54 | 198 | 0.0 | 0.0 | 0.00 | 0.00 | 0.00 | 82 | 1012.4 |
| 20260510101005 | 54 | 198 | 0.0 | 0.0 | 0.00 | 0.00 | 0.00 | 82 | 1012.2 |
| 20260510100505 | 55 | 198 | 0.0 | 0.0 | 0.00 | 0.00 | 0.00 | 82 | 1012.2 |
| 20260510100004 | 55 | 198 | 0.0 | 1.0 | 0.00 | 0.00 | 0.00 | 82 | 1012.2 |
| 20260510095504 | 55 | 198 | 0.0 | 1.0 | 0.00 | 0.00 | 0.00 | 82 | 1012.1 |
| 20260510095002 | 55 | 198 | 0.0 | 0.0 | 0.00 | 0.00 | 0.00 | 81 | 1012.0 |
| 20260510094509 | 55 | 198 | 0.0 | 0.0 | 0.00 | 0.00 | 0.00 | 81 | 1011.9 |
| 20260510094001 | 55 | 198 | 0.0 | 0.0 | 0.00 | 0.00 | 0.00 | 81 | 1011.8 |
| 20260510093600 | 55 | 198 | 0.0 | 0.0 | 0.00 | 0.00 | 0.00 | 81 | 1011.8 |
| 20260510093102 | 55 | 198 | 0.0 | 0.0 | 0.00 | 0.00 | 0.00 | 81 | 1011.7 |
| 20260510092600 | 55 | 198 | 0.0 | 0.0 | 0.00 | 0.00 | 0.00 | 81 | 1011.8 |
| 20260510092102 | 55 | 198 | 0.0 | 0.0 | 0.00 | 0.00 | 0.00 | 81 | 1011.8 |
| 20260510091558 | 55 | 198 | 0.0 | 0.0 | 0.00 | 0.00 | 0.00 | 81 | 1011.7 |
| 20260510091058 | 55 | 198 | 0.0 | 0.0 | 0.00 | 0.00 | 0.00 | 81 | 1011.6 |
| 20260510090557 | 56 | 198 | 0.0 | 0.0 | 0.00 | 0.00 | 0.00 | 81 | 1011.6 |
| 20260510090058 | 56 | 198 | 0.0 | 0.0 | 0.00 | 0.00 | 0.00 | 81 | 1011.5 |
| 20260510085556 | 56 | 198 | 0.0 | 0.0 | 0.00 | 0.00 | 0.00 | 81 | 1011.5 |
| 20260510085055 | 56 | 198 | 0.0 | 0.0 | 0.00 | 0.00 | 0.00 | 81 | 1011.5 |
| 20260510084555 | 56 | 198 | 0.0 | 0.0 | 0.00 | 0.00 | 0.00 | 80 | 1011.5 |
| 20260510084055 | 56 | 198 | 0.0 | 0.0 | 0.00 | 0.00 | 0.00 | 80 | 1011.4 |
| 20260510083554 | 56 | 198 | 0.0 | 0.0 | 0.00 | 0.00 | 0.00 | 80 | 1011.3 |
| 20260510083054 | 56 | 198 | 0.0 | 0.0 | 0.00 | 0.00 | 0.00 | 80 | 1011.3 |
| 20260510082555 | 56 | 198 | 0.0 | 0.0 | 0.00 | 0.00 | 0.00 | 80 | 1011.3 |
| 20260510082053 | 57 | 198 | 0.0 | 0.0 | 0.00 | 0.00 | 0.00 | 80 | 1011.2 |
| 20260510081613 | 57 | 198 | 0.0 | 0.0 | 0.00 | 0.00 | 0.00 | 80 | 1011.4 |
| 20260510081052 | 57 | 198 | 0.0 | 0.0 | 0.00 | 0.00 | 0.00 | 80 | 1011.4 |
| 20260510080552 | 57 | 198 | 0.0 | 0.0 | 0.00 | 0.00 | 0.00 | 80 | 1011.4 |
| 20260510080056 | 57 | 198 | 0.0 | 0.0 | 0.00 | 0.00 | 0.00 | 80 | 1011.4 |
| 20260510075550 | 57 | 198 | 0.0 | 0.0 | 0.00 | 0.00 | 0.00 | 80 | 1011.4 |
| 20260510075050 | 57 | 198 | 0.0 | 0.0 | 0.00 | 0.00 | 0.00 | 80 | 1011.3 |
| 20260510074552 | 57 | 198 | 0.0 | 0.0 | 0.00 | 0.00 | 0.00 | 79 | 1011.2 |
| 20260510074049 | 57 | 198 | 0.0 | 0.0 | 0.00 | 0.00 | 0.00 | 79 | 1011.2 |
| 20260510073549 | 57 | 198 | 0.0 | 0.0 | 0.00 | 0.00 | 0.00 | 79 | 1011.1 |
| 20260510073048 | 58 | 198 | 0.0 | 0.0 | 0.00 | 0.00 | 0.00 | 79 | 1011.1 |
| 20260510072548 | 58 | 198 | 0.0 | 0.0 | 0.00 | 0.00 | 0.00 | 79 | 1011.1 |
| 20260510072052 | 58 | 198 | 0.0 | 0.0 | 0.00 | 0.00 | 0.00 | 79 | 1011.0 |
| 20260510071547 | 58 | 198 | 0.0 | 0.0 | 0.00 | 0.00 | 0.00 | 79 | 1011.1 |
| 20260510071046 | 58 | 198 | 0.0 | 1.0 | 0.00 | 0.00 | 0.00 | 79 | 1011.2 |
| 20260510070546 | 58 | 198 | 0.0 | 1.0 | 0.00 | 0.00 | 0.00 | 78 | 1011.1 |
| 20260510070047 | 58 | 198 | 0.0 | 1.0 | 0.00 | 0.00 | 0.00 | 78 | 1011.1 |
| 20260510065545 | 58 | 198 | 0.0 | 0.0 | 0.00 | 0.00 | 0.00 | 78 | 1011.1 |
| 20260510065045 | 58 | 198 | 0.0 | 0.0 | 0.00 | 0.00 | 0.00 | 78 | 1011.0 |
| 20260510064544 | 58 | 198 | 0.0 | 0.0 | 0.00 | 0.00 | 0.00 | 78 | 1011.0 |
| 20260510064044 | 58 | 198 | 0.0 | 0.0 | 0.00 | 0.00 | 0.00 | 78 | 1011.1 |
| 20260510063543 | 58 | 198 | 0.0 | 0.0 | 0.00 | 0.00 | 0.00 | 77 | 1011.2 |
| 20260510063042 | 58 | 198 | 0.0 | 0.0 | 0.00 | 0.00 | 0.00 | 77 | 1011.2 |
| 20260510062541 | 59 | 198 | 0.0 | 0.0 | 0.00 | 0.00 | 0.00 | 77 | 1011.1 |
| 20260510062041 | 59 | 198 | 0.0 | 0.0 | 0.00 | 0.00 | 0.00 | 77 | 1011.2 |
| 20260510061541 | 59 | 198 | 0.0 | 0.0 | 0.00 | 0.00 | 0.00 | 77 | 1011.3 |
| 20260510061042 | 59 | 198 | 0.0 | 0.0 | 0.00 | 0.00 | 0.00 | 77 | 1011.4 |
| 20260510060540 | 59 | 198 | 0.0 | 0.0 | 0.00 | 0.00 | 0.00 | 77 | 1011.3 |
| 20260510060048 | 59 | 198 | 0.0 | 0.0 | 0.00 | 0.00 | 0.00 | 77 | 1011.4 |
| 20260510055538 | 59 | 198 | 0.0 | 0.0 | 0.00 | 0.00 | 0.00 | 77 | 1011.4 |
| 20260510055037 | 59 | 198 | 0.0 | 0.0 | 0.00 | 0.00 | 0.00 | 76 | 1011.4 |
| 20260510054537 | 59 | 198 | 0.0 | 0.0 | 0.00 | 0.00 | 0.00 | 76 | 1011.5 |
| 20260510054036 | 59 | 198 | 0.0 | 0.0 | 0.00 | 0.00 | 0.00 | 76 | 1011.5 |
| 20260510053536 | 59 | 198 | 0.0 | 0.0 | 0.00 | 0.00 | 0.00 | 76 | 1011.5 |
| 20260510053035 | 60 | 198 | 0.0 | 0.0 | 0.00 | 0.00 | 0.00 | 76 | 1011.6 |
| 20260510052535 | 60 | 198 | 0.0 | 0.0 | 0.00 | 0.00 | 0.00 | 76 | 1011.6 |
| 20260510052035 | 60 | 198 | 0.0 | 0.0 | 0.00 | 0.00 | 0.00 | 76 | 1011.6 |
| 20260510051541 | 60 | 198 | 0.0 | 0.0 | 0.00 | 0.00 | 0.00 | 75 | 1011.7 |
| 20260510051035 | 60 | 198 | 0.0 | 0.0 | 0.00 | 0.00 | 0.00 | 75 | 1011.6 |
| 20260510050533 | 60 | 198 | 0.0 | 0.0 | 0.00 | 0.00 | 0.00 | 74 | 1011.5 |
| 20260510050032 | 60 | 198 | 0.0 | 0.0 | 0.00 | 0.00 | 0.00 | 74 | 1011.7 |
| 20260510045534 | 60 | 198 | 0.0 | 0.0 | 0.00 | 0.00 | 0.00 | 74 | 1011.7 |
| 20260510045031 | 61 | 198 | 0.0 | 0.0 | 0.00 | 0.00 | 0.00 | 74 | 1011.7 |
| 20260510044533 | 61 | 198 | 0.0 | 0.0 | 0.00 | 0.00 | 0.00 | 73 | 1011.7 |
| 20260510044032 | 61 | 198 | 0.0 | 0.0 | 0.00 | 0.00 | 0.00 | 72 | 1011.5 |
| 20260510043528 | 61 | 198 | 0.0 | 0.0 | 0.00 | 0.00 | 0.00 | 72 | 1011.5 |
| 20260510043028 | 61 | 198 | 0.0 | 0.0 | 0.00 | 0.00 | 0.00 | 72 | 1011.6 |
| 20260510042528 | 61 | 198 | 0.0 | 0.0 | 0.00 | 0.00 | 0.00 | 72 | 1011.5 |
| 20260510042025 | 62 | 198 | 0.0 | 0.0 | 0.00 | 0.00 | 0.00 | 71 | 1011.4 |
| 20260510041530 | 62 | 198 | 0.0 | 0.0 | 0.00 | 0.00 | 0.00 | 70 | 1011.3 |
| 20260510041024 | 62 | 198 | 0.0 | 0.0 | 0.00 | 0.00 | 0.00 | 70 | 1011.4 |
| 20260510040524 | 62 | 198 | 0.0 | 0.0 | 0.00 | 0.00 | 0.00 | 70 | 1011.4 |
| 20260510040022 | 62 | 198 | 0.0 | 0.0 | 0.00 | 0.00 | 0.00 | 69 | 1011.4 |
| 20260510035522 | 63 | 198 | 0.0 | 0.0 | 0.00 | 0.00 | 0.00 | 69 | 1011.4 |
| 20260510035024 | 63 | 198 | 0.0 | 0.0 | 0.00 | 0.00 | 0.00 | 69 | 1011.3 |
| 20260510034522 | 63 | 198 | 0.0 | 0.0 | 0.00 | 0.00 | 0.00 | 70 | 1011.2 |
| 20260510034021 | 63 | 198 | 0.0 | 0.0 | 0.00 | 0.00 | 0.00 | 69 | 1011.2 |
| 20260510033521 | 63 | 198 | 0.0 | 0.0 | 0.00 | 0.00 | 0.00 | 69 | 1011.2 |
| 20260510033021 | 63 | 198 | 0.0 | 0.0 | 0.00 | 0.00 | 0.00 | 69 | 1011.2 |
| 20260510032522 | 64 | 198 | 0.0 | 0.0 | 0.00 | 0.00 | 0.00 | 69 | 1011.1 |
| 20260510032021 | 64 | 198 | 0.0 | 0.0 | 0.00 | 0.00 | 0.00 | 69 | 1011.1 |
| 20260510031521 | 64 | 198 | 0.0 | 0.0 | 0.00 | 0.00 | 0.00 | 69 | 1011.0 |
| 20260510031021 | 64 | 198 | 0.0 | 2.0 | 0.00 | 0.00 | 0.00 | 69 | 1011.1 |
| 20260510030520 | 64 | 198 | 0.0 | 2.0 | 0.00 | 0.00 | 0.00 | 69 | 1011.1 |
| 20260510030020 | 64 | 198 | 0.0 | 0.0 | 0.00 | 0.00 | 0.00 | 68 | 1011.0 |
| 20260510025521 | 64 | 198 | 0.0 | 0.0 | 0.00 | 0.00 | 0.00 | 68 | 1010.9 |
| 20260510025023 | 64 | 198 | 0.0 | 0.0 | 0.00 | 0.00 | 0.00 | 68 | 1011.0 |
| 20260510024520 | 64 | 198 | 0.0 | 1.0 | 0.00 | 0.00 | 0.00 | 68 | 1011.1 |
| 20260510024019 | 64 | 198 | 0.0 | 1.0 | 0.00 | 0.00 | 0.00 | 68 | 1011.0 |
| 20260510023519 | 64 | 198 | 0.0 | 2.0 | 0.00 | 0.00 | 0.00 | 67 | 1011.0 |
| 20260510023034 | 65 | 196 | 0.0 | 0.0 | 0.00 | 0.00 | 0.00 | 67 | 1010.9 |
| 20260510022519 | 65 | 196 | 0.0 | 0.0 | 0.00 | 0.00 | 0.00 | 67 | 1010.9 |
| 20260510022019 | 65 | 196 | 0.0 | 3.0 | 0.00 | 0.00 | 0.00 | 67 | 1010.9 |
| 20260510021519 | 65 | 194 | 0.0 | 3.0 | 0.00 | 0.00 | 0.00 | 67 | 1010.7 |
| 20260510021018 | 65 | 209 | 0.0 | 5.0 | 0.00 | 0.00 | 0.00 | 67 | 1010.7 |
| 20260510020518 | 65 | 209 | 1.0 | 5.0 | 0.00 | 0.00 | 0.00 | 67 | 1010.7 |
| 20260510020018 | 65 | 201 | 0.0 | 4.0 | 0.00 | 0.00 | 0.00 | 67 | 1010.7 |
| 20260510015517 | 65 | 230 | 0.0 | 2.0 | 0.00 | 0.00 | 0.00 | 66 | 1010.7 |
| 20260510015017 | 65 | 218 | 0.0 | 2.0 | 0.00 | 0.00 | 0.00 | 65 | 1010.7 |
| 20260510014517 | 66 | 218 | 0.0 | 2.0 | 0.00 | 0.00 | 0.00 | 65 | 1010.7 |
| 20260510014017 | 66 | 218 | 0.0 | 2.0 | 0.00 | 0.00 | 0.00 | 64 | 1010.6 |
| 20260510013517 | 66 | 218 | 0.0 | 0.0 | 0.00 | 0.00 | 0.00 | 63 | 1010.6 |
| 20260510013017 | 67 | 218 | 0.0 | 0.0 | 0.00 | 0.00 | 0.00 | 63 | 1010.7 |
| 20260510012516 | 67 | 218 | 0.0 | 0.0 | 0.00 | 0.00 | 0.00 | 63 | 1010.7 |
| 20260510012016 | 67 | 218 | 0.0 | 0.0 | 0.00 | 0.00 | 0.00 | 63 | 1010.5 |
| 20260510011522 | 68 | 218 | 0.0 | 0.0 | 0.00 | 0.00 | 0.00 | 62 | 1010.5 |
| 20260510011019 | 68 | 218 | 0.0 | 0.0 | 0.00 | 0.00 | 0.00 | 62 | 1010.4 |
| 20260510010516 | 68 | 218 | 0.0 | 0.0 | 0.00 | 0.00 | 0.00 | 60 | 1010.5 |
| 20260510010022 | 68 | 218 | 0.0 | 0.0 | 0.00 | 0.00 | 0.00 | 60 | 1010.4 |
| 20260510005515 | 69 | 218 | 0.0 | 0.0 | 0.00 | 0.00 | 0.00 | 59 | 1010.4 |
| 20260510005014 | 69 | 218 | 0.0 | 0.0 | 0.00 | 0.00 | 0.00 | 58 | 1010.4 |
| 20260510004514 | 70 | 218 | 0.0 | 0.0 | 0.00 | 0.00 | 0.00 | 57 | 1010.3 |
| 20260510004014 | 70 | 218 | 0.0 | 0.0 | 0.00 | 0.00 | 0.00 | 56 | 1010.3 |
| 20260510003515 | 70 | 218 | 0.0 | 1.0 | 0.00 | 0.00 | 0.00 | 56 | 1010.0 |
| 20260510003015 | 71 | 217 | 0.0 | 1.0 | 0.00 | 0.00 | 0.00 | 56 | 1010.0 |
| 20260510002514 | 71 | 218 | 0.0 | 0.0 | 0.00 | 0.00 | 0.00 | 55 | 1010.0 |
| 20260510002014 | 71 | 218 | 0.0 | 0.0 | 0.00 | 0.00 | 0.00 | 55 | 1009.8 |
| 20260510001516 | 72 | 218 | 0.0 | 0.0 | 0.00 | 0.00 | 0.00 | 55 | 1009.8 |
| 20260510001014 | 72 | 218 | 0.0 | 2.0 | 0.00 | 0.00 | 0.00 | 54 | 1009.7 |
| 20260510000514 | 72 | 218 | 0.0 | 7.0 | 0.00 | 0.00 | 0.00 | 54 | 1009.6 |
| 20260510000013 | 72 | 180 | 3.0 | 7.0 | 0.00 | 0.00 | 0.00 | 53 | 1009.6 |
| 20260509235513 | 73 | 205 | 2.0 | 4.0 | 0.00 | 0.00 | 0.00 | 52 | 1009.4 |
| 20260509235013 | 73 | 213 | 1.0 | 5.0 | 0.00 | 0.00 | 0.00 | 52 | 1009.3 |
| 20260509234512 | 73 | 207 | 0.0 | 5.0 | 0.00 | 0.00 | 0.00 | 52 | 1009.4 |
| 20260509234013 | 73 | 205 | 1.0 | 7.0 | 0.00 | 0.00 | 0.00 | 51 | 1009.4 |
| 20260509233512 | 73 | 202 | 3.0 | 7.0 | 0.00 | 0.00 | 0.00 | 51 | 1009.4 |
| 20260509233012 | 73 | 209 | 3.0 | 9.0 | 0.00 | 0.00 | 0.00 | 51 | 1009.4 |
| 20260509232512 | 74 | 202 | 4.0 | 8.0 | 0.00 | 0.00 | 0.00 | 50 | 1009.4 |
| 20260509232011 | 74 | 202 | 2.0 | 7.0 | 0.00 | 0.00 | 0.00 | 50 | 1009.4 |
| 20260509231512 | 74 | 204 | 2.0 | 7.0 | 0.00 | 0.00 | 0.00 | 50 | 1009.3 |
| 20260509231011 | 74 | 202 | 1.0 | 5.0 | 0.00 | 0.00 | 0.00 | 49 | 1009.3 |
| 20260509230511 | 74 | 214 | 0.0 | 4.0 | 0.00 | 0.00 | 0.00 | 49 | 1009.4 |
| 20260509230010 | 74 | 213 | 1.0 | 5.0 | 0.00 | 0.00 | 0.00 | 49 | 1009.2 |
| 20260509225512 | 74 | 196 | 3.0 | 7.0 | 0.00 | 0.00 | 0.00 | 49 | 1009.2 |
| 20260509225011 | 74 | 202 | 2.0 | 4.0 | 0.00 | 0.00 | 0.00 | 48 | 1009.4 |
| 20260509224509 | 74 | 205 | 0.0 | 7.0 | 0.00 | 0.00 | 0.00 | 48 | 1009.4 |
| 20260509224010 | 75 | 197 | 2.0 | 7.0 | 0.00 | 0.00 | 0.00 | 48 | 1009.3 |
| 20260509223512 | 75 | 191 | 2.0 | 5.0 | 0.00 | 0.00 | 0.00 | 47 | 1009.1 |
| 20260509223010 | 75 | 198 | 0.0 | 4.0 | 0.00 | 0.00 | 0.00 | 48 | 1009.1 |
| 20260509222508 | 75 | 192 | 0.0 | 8.0 | 0.00 | 0.00 | 0.00 | 48 | 1009.2 |
| 20260509222009 | 75 | 195 | 1.0 | 9.0 | 0.00 | 0.00 | 0.00 | 48 | 1009.3 |
| 20260509221510 | 75 | 202 | 2.0 | 9.0 | 0.00 | 0.00 | 0.00 | 47 | 1009.2 |
| 20260509221010 | 75 | 202 | 3.0 | 8.0 | 0.00 | 0.00 | 0.00 | 47 | 1009.1 |
| 20260509220508 | 75 | 205 | 2.0 | 9.0 | 0.00 | 0.00 | 0.00 | 47 | 1009.1 |